Index of /20260416/WXO-DD/model_rdps/10km/18/060
Name Last modified Size Description
Parent Directory -
20260416T18Z_MSC_RDPS_AbsoluteVorticity_IsbL-0250_RLatLon0.09_PT060H.grib2 2026-04-16 20:58 597K
20260416T18Z_MSC_RDPS_AbsoluteVorticity_IsbL-0500_RLatLon0.09_PT060H.grib2 2026-04-16 20:58 696K
20260416T18Z_MSC_RDPS_AbsoluteVorticity_IsbL-0700_RLatLon0.09_PT060H.grib2 2026-04-16 20:58 607K
20260416T18Z_MSC_RDPS_AbsoluteVorticity_IsbL-0850_RLatLon0.09_PT060H.grib2 2026-04-16 20:58 775K
20260416T18Z_MSC_RDPS_AirTemp_AGL-120m_RLatLon0.09_PT060H.grib2 2026-04-16 20:58 374K
20260416T18Z_MSC_RDPS_AirTemp_AGL-2m_RLatLon0.09_PT060H.grib2 2026-04-16 20:58 630K
20260416T18Z_MSC_RDPS_AirTemp_AGL-40m_RLatLon0.09_PT060H.grib2 2026-04-16 20:58 391K
20260416T18Z_MSC_RDPS_AirTemp_AGL-80m_RLatLon0.09_PT060H.grib2 2026-04-16 20:58 381K
20260416T18Z_MSC_RDPS_AirTemp_IsbL-0001_RLatLon0.09_PT060H.grib2 2026-04-16 20:58 294K
20260416T18Z_MSC_RDPS_AirTemp_IsbL-0005_RLatLon0.09_PT060H.grib2 2026-04-16 20:58 334K
20260416T18Z_MSC_RDPS_AirTemp_IsbL-0010_RLatLon0.09_PT060H.grib2 2026-04-16 20:58 304K
20260416T18Z_MSC_RDPS_AirTemp_IsbL-0020_RLatLon0.09_PT060H.grib2 2026-04-16 20:58 355K
20260416T18Z_MSC_RDPS_AirTemp_IsbL-0030_RLatLon0.09_PT060H.grib2 2026-04-16 20:58 374K
20260416T18Z_MSC_RDPS_AirTemp_IsbL-0050_RLatLon0.09_PT060H.grib2 2026-04-16 20:58 321K
20260416T18Z_MSC_RDPS_AirTemp_IsbL-0100_RLatLon0.09_PT060H.grib2 2026-04-16 20:58 419K
20260416T18Z_MSC_RDPS_AirTemp_IsbL-0150_RLatLon0.09_PT060H.grib2 2026-04-16 20:58 414K
20260416T18Z_MSC_RDPS_AirTemp_IsbL-0175_RLatLon0.09_PT060H.grib2 2026-04-16 20:58 409K
20260416T18Z_MSC_RDPS_AirTemp_IsbL-0200_RLatLon0.09_PT060H.grib2 2026-04-16 20:58 411K
20260416T18Z_MSC_RDPS_AirTemp_IsbL-0225_RLatLon0.09_PT060H.grib2 2026-04-16 20:58 413K
20260416T18Z_MSC_RDPS_AirTemp_IsbL-0250_RLatLon0.09_PT060H.grib2 2026-04-16 20:58 421K
20260416T18Z_MSC_RDPS_AirTemp_IsbL-0275_RLatLon0.09_PT060H.grib2 2026-04-16 20:58 402K
20260416T18Z_MSC_RDPS_AirTemp_IsbL-0300_RLatLon0.09_PT060H.grib2 2026-04-16 20:58 405K
20260416T18Z_MSC_RDPS_AirTemp_IsbL-0350_RLatLon0.09_PT060H.grib2 2026-04-16 20:58 417K
20260416T18Z_MSC_RDPS_AirTemp_IsbL-0400_RLatLon0.09_PT060H.grib2 2026-04-16 20:58 419K
20260416T18Z_MSC_RDPS_AirTemp_IsbL-0450_RLatLon0.09_PT060H.grib2 2026-04-16 20:58 427K
20260416T18Z_MSC_RDPS_AirTemp_IsbL-0500_RLatLon0.09_PT060H.grib2 2026-04-16 20:58 404K
20260416T18Z_MSC_RDPS_AirTemp_IsbL-0550_RLatLon0.09_PT060H.grib2 2026-04-16 20:58 422K
20260416T18Z_MSC_RDPS_AirTemp_IsbL-0600_RLatLon0.09_PT060H.grib2 2026-04-16 20:58 441K
20260416T18Z_MSC_RDPS_AirTemp_IsbL-0650_RLatLon0.09_PT060H.grib2 2026-04-16 20:58 456K
20260416T18Z_MSC_RDPS_AirTemp_IsbL-0700_RLatLon0.09_PT060H.grib2 2026-04-16 20:58 481K
20260416T18Z_MSC_RDPS_AirTemp_IsbL-0750_RLatLon0.09_PT060H.grib2 2026-04-16 20:58 521K
20260416T18Z_MSC_RDPS_AirTemp_IsbL-0800_RLatLon0.09_PT060H.grib2 2026-04-16 20:58 575K
20260416T18Z_MSC_RDPS_AirTemp_IsbL-0850_RLatLon0.09_PT060H.grib2 2026-04-16 20:58 502K
20260416T18Z_MSC_RDPS_AirTemp_IsbL-0875_RLatLon0.09_PT060H.grib2 2026-04-16 20:58 517K
20260416T18Z_MSC_RDPS_AirTemp_IsbL-0900_RLatLon0.09_PT060H.grib2 2026-04-16 20:58 520K
20260416T18Z_MSC_RDPS_AirTemp_IsbL-0925_RLatLon0.09_PT060H.grib2 2026-04-16 20:58 513K
20260416T18Z_MSC_RDPS_AirTemp_IsbL-0950_RLatLon0.09_PT060H.grib2 2026-04-16 20:58 509K
20260416T18Z_MSC_RDPS_AirTemp_IsbL-0970_RLatLon0.09_PT060H.grib2 2026-04-16 20:58 506K
20260416T18Z_MSC_RDPS_AirTemp_IsbL-0985_RLatLon0.09_PT060H.grib2 2026-04-16 20:58 499K
20260416T18Z_MSC_RDPS_AirTemp_IsbL-1000_RLatLon0.09_PT060H.grib2 2026-04-16 20:58 485K
20260416T18Z_MSC_RDPS_AirTemp_IsbL-1015_RLatLon0.09_PT060H.grib2 2026-04-16 20:58 499K
20260416T18Z_MSC_RDPS_Albedo_Sfc_RLatLon0.09_PT060H.grib2 2026-04-16 20:58 164K
20260416T18Z_MSC_RDPS_CAPE_Sfc_RLatLon0.09_PT060H.grib2 2026-04-16 20:58 1.6M
20260416T18Z_MSC_RDPS_CIN_Sfc_RLatLon0.09_PT060H.grib2 2026-04-16 20:58 1.1M
20260416T18Z_MSC_RDPS_CloudWater_EAtm_RLatLon0.09_PT060H.grib2 2026-04-16 20:58 210K
20260416T18Z_MSC_RDPS_ConvectivePrecip-Accum_Sfc_RLatLon0.09_PT060H.grib2 2026-04-16 20:58 1.1M
20260416T18Z_MSC_RDPS_DewPointDepression_AGL-2m_RLatLon0.09_PT060H.grib2 2026-04-16 20:58 390K
20260416T18Z_MSC_RDPS_DewPointDepression_IsbL-0001_RLatLon0.09_PT060H.grib2 2026-04-16 20:58 193
20260416T18Z_MSC_RDPS_DewPointDepression_IsbL-0005_RLatLon0.09_PT060H.grib2 2026-04-16 20:58 193
20260416T18Z_MSC_RDPS_DewPointDepression_IsbL-0010_RLatLon0.09_PT060H.grib2 2026-04-16 20:58 193
20260416T18Z_MSC_RDPS_DewPointDepression_IsbL-0020_RLatLon0.09_PT060H.grib2 2026-04-16 20:58 193
20260416T18Z_MSC_RDPS_DewPointDepression_IsbL-0030_RLatLon0.09_PT060H.grib2 2026-04-16 20:58 1.6K
20260416T18Z_MSC_RDPS_DewPointDepression_IsbL-0050_RLatLon0.09_PT060H.grib2 2026-04-16 20:58 118K
20260416T18Z_MSC_RDPS_DewPointDepression_IsbL-0100_RLatLon0.09_PT060H.grib2 2026-04-16 20:58 123K
20260416T18Z_MSC_RDPS_DewPointDepression_IsbL-0150_RLatLon0.09_PT060H.grib2 2026-04-16 20:58 147K
20260416T18Z_MSC_RDPS_DewPointDepression_IsbL-0175_RLatLon0.09_PT060H.grib2 2026-04-16 20:58 177K
20260416T18Z_MSC_RDPS_DewPointDepression_IsbL-0200_RLatLon0.09_PT060H.grib2 2026-04-16 20:58 207K
20260416T18Z_MSC_RDPS_DewPointDepression_IsbL-0225_RLatLon0.09_PT060H.grib2 2026-04-16 20:58 247K
20260416T18Z_MSC_RDPS_DewPointDepression_IsbL-0250_RLatLon0.09_PT060H.grib2 2026-04-16 20:58 288K
20260416T18Z_MSC_RDPS_DewPointDepression_IsbL-0275_RLatLon0.09_PT060H.grib2 2026-04-16 20:58 295K
20260416T18Z_MSC_RDPS_DewPointDepression_IsbL-0300_RLatLon0.09_PT060H.grib2 2026-04-16 20:58 312K
20260416T18Z_MSC_RDPS_DewPointDepression_IsbL-0350_RLatLon0.09_PT060H.grib2 2026-04-16 20:58 316K
20260416T18Z_MSC_RDPS_DewPointDepression_IsbL-0400_RLatLon0.09_PT060H.grib2 2026-04-16 20:58 335K
20260416T18Z_MSC_RDPS_DewPointDepression_IsbL-0450_RLatLon0.09_PT060H.grib2 2026-04-16 20:58 345K
20260416T18Z_MSC_RDPS_DewPointDepression_IsbL-0500_RLatLon0.09_PT060H.grib2 2026-04-16 20:58 349K
20260416T18Z_MSC_RDPS_DewPointDepression_IsbL-0550_RLatLon0.09_PT060H.grib2 2026-04-16 20:58 357K
20260416T18Z_MSC_RDPS_DewPointDepression_IsbL-0600_RLatLon0.09_PT060H.grib2 2026-04-16 20:58 370K
20260416T18Z_MSC_RDPS_DewPointDepression_IsbL-0650_RLatLon0.09_PT060H.grib2 2026-04-16 20:58 377K
20260416T18Z_MSC_RDPS_DewPointDepression_IsbL-0700_RLatLon0.09_PT060H.grib2 2026-04-16 20:58 389K
20260416T18Z_MSC_RDPS_DewPointDepression_IsbL-0750_RLatLon0.09_PT060H.grib2 2026-04-16 20:58 413K
20260416T18Z_MSC_RDPS_DewPointDepression_IsbL-0800_RLatLon0.09_PT060H.grib2 2026-04-16 20:58 441K
20260416T18Z_MSC_RDPS_DewPointDepression_IsbL-0850_RLatLon0.09_PT060H.grib2 2026-04-16 20:58 459K
20260416T18Z_MSC_RDPS_DewPointDepression_IsbL-0875_RLatLon0.09_PT060H.grib2 2026-04-16 20:58 459K
20260416T18Z_MSC_RDPS_DewPointDepression_IsbL-0900_RLatLon0.09_PT060H.grib2 2026-04-16 20:58 451K
20260416T18Z_MSC_RDPS_DewPointDepression_IsbL-0925_RLatLon0.09_PT060H.grib2 2026-04-16 20:58 442K
20260416T18Z_MSC_RDPS_DewPointDepression_IsbL-0950_RLatLon0.09_PT060H.grib2 2026-04-16 20:58 435K
20260416T18Z_MSC_RDPS_DewPointDepression_IsbL-0970_RLatLon0.09_PT060H.grib2 2026-04-16 20:58 427K
20260416T18Z_MSC_RDPS_DewPointDepression_IsbL-0985_RLatLon0.09_PT060H.grib2 2026-04-16 20:58 425K
20260416T18Z_MSC_RDPS_DewPointDepression_IsbL-1000_RLatLon0.09_PT060H.grib2 2026-04-16 20:58 421K
20260416T18Z_MSC_RDPS_DewPointDepression_IsbL-1015_RLatLon0.09_PT060H.grib2 2026-04-16 20:58 411K
20260416T18Z_MSC_RDPS_DewPoint_AGL-2m_RLatLon0.09_PT060H.grib2 2026-04-16 20:58 307K
20260416T18Z_MSC_RDPS_DownwardLongwaveRadiationFlux-Accum_Sfc_RLatLon0.09_PT060H.grib2 2026-04-16 20:58 392K
20260416T18Z_MSC_RDPS_DownwardShortwaveRadiationFlux-Accum_NTAtm_RLatLon0.09_PT060H.grib2 2026-04-16 20:58 105K
20260416T18Z_MSC_RDPS_DownwardShortwaveRadiationFlux-Accum_Sfc_RLatLon0.09_PT060H.grib2 2026-04-16 20:58 581K
20260416T18Z_MSC_RDPS_FreezingRain-Accum12h_Sfc_RLatLon0.09_PT060H.grib2 2026-04-16 20:58 59K
20260416T18Z_MSC_RDPS_FreezingRain-Accum1h_Sfc_RLatLon0.09_PT060H.grib2 2026-04-16 20:58 30K
20260416T18Z_MSC_RDPS_FreezingRain-Accum24h_Sfc_RLatLon0.09_PT060H.grib2 2026-04-16 20:58 96K
20260416T18Z_MSC_RDPS_FreezingRain-Accum3h_Sfc_RLatLon0.09_PT060H.grib2 2026-04-16 20:58 36K
20260416T18Z_MSC_RDPS_FreezingRain-Accum6h_Sfc_RLatLon0.09_PT060H.grib2 2026-04-16 20:58 52K
20260416T18Z_MSC_RDPS_FreezingRain-Accum_Sfc_RLatLon0.09_PT060H.grib2 2026-04-16 20:58 161K
20260416T18Z_MSC_RDPS_GeopotentialHeight_IsbL-0001_RLatLon0.09_PT060H.grib2 2026-04-16 20:58 265K
20260416T18Z_MSC_RDPS_GeopotentialHeight_IsbL-0005_RLatLon0.09_PT060H.grib2 2026-04-16 20:58 234K
20260416T18Z_MSC_RDPS_GeopotentialHeight_IsbL-0010_RLatLon0.09_PT060H.grib2 2026-04-16 20:58 338K
20260416T18Z_MSC_RDPS_GeopotentialHeight_IsbL-0020_RLatLon0.09_PT060H.grib2 2026-04-16 20:58 337K
20260416T18Z_MSC_RDPS_GeopotentialHeight_IsbL-0030_RLatLon0.09_PT060H.grib2 2026-04-16 20:58 306K
20260416T18Z_MSC_RDPS_GeopotentialHeight_IsbL-0050_RLatLon0.09_PT060H.grib2 2026-04-16 20:58 310K
20260416T18Z_MSC_RDPS_GeopotentialHeight_IsbL-0100_RLatLon0.09_PT060H.grib2 2026-04-16 20:58 284K
20260416T18Z_MSC_RDPS_GeopotentialHeight_IsbL-0150_RLatLon0.09_PT060H.grib2 2026-04-16 20:58 258K
20260416T18Z_MSC_RDPS_GeopotentialHeight_IsbL-0175_RLatLon0.09_PT060H.grib2 2026-04-16 20:58 261K
20260416T18Z_MSC_RDPS_GeopotentialHeight_IsbL-0200_RLatLon0.09_PT060H.grib2 2026-04-16 20:58 263K
20260416T18Z_MSC_RDPS_GeopotentialHeight_IsbL-0225_RLatLon0.09_PT060H.grib2 2026-04-16 20:58 265K
20260416T18Z_MSC_RDPS_GeopotentialHeight_IsbL-0250_RLatLon0.09_PT060H.grib2 2026-04-16 20:58 265K
20260416T18Z_MSC_RDPS_GeopotentialHeight_IsbL-0275_RLatLon0.09_PT060H.grib2 2026-04-16 20:58 265K
20260416T18Z_MSC_RDPS_GeopotentialHeight_IsbL-0300_RLatLon0.09_PT060H.grib2 2026-04-16 20:58 264K
20260416T18Z_MSC_RDPS_GeopotentialHeight_IsbL-0350_RLatLon0.09_PT060H.grib2 2026-04-16 20:58 229K
20260416T18Z_MSC_RDPS_GeopotentialHeight_IsbL-0400_RLatLon0.09_PT060H.grib2 2026-04-16 20:58 226K
20260416T18Z_MSC_RDPS_GeopotentialHeight_IsbL-0450_RLatLon0.09_PT060H.grib2 2026-04-16 20:58 294K
20260416T18Z_MSC_RDPS_GeopotentialHeight_IsbL-0500_RLatLon0.09_PT060H.grib2 2026-04-16 20:58 290K
20260416T18Z_MSC_RDPS_GeopotentialHeight_IsbL-0550_RLatLon0.09_PT060H.grib2 2026-04-16 20:58 286K
20260416T18Z_MSC_RDPS_GeopotentialHeight_IsbL-0600_RLatLon0.09_PT060H.grib2 2026-04-16 20:58 282K
20260416T18Z_MSC_RDPS_GeopotentialHeight_IsbL-0650_RLatLon0.09_PT060H.grib2 2026-04-16 20:58 282K
20260416T18Z_MSC_RDPS_GeopotentialHeight_IsbL-0700_RLatLon0.09_PT060H.grib2 2026-04-16 20:58 281K
20260416T18Z_MSC_RDPS_GeopotentialHeight_IsbL-0750_RLatLon0.09_PT060H.grib2 2026-04-16 20:58 257K
20260416T18Z_MSC_RDPS_GeopotentialHeight_IsbL-0800_RLatLon0.09_PT060H.grib2 2026-04-16 20:58 264K
20260416T18Z_MSC_RDPS_GeopotentialHeight_IsbL-0850_RLatLon0.09_PT060H.grib2 2026-04-16 20:58 272K
20260416T18Z_MSC_RDPS_GeopotentialHeight_IsbL-0875_RLatLon0.09_PT060H.grib2 2026-04-16 20:58 274K
20260416T18Z_MSC_RDPS_GeopotentialHeight_IsbL-0900_RLatLon0.09_PT060H.grib2 2026-04-16 20:58 278K
20260416T18Z_MSC_RDPS_GeopotentialHeight_IsbL-0925_RLatLon0.09_PT060H.grib2 2026-04-16 20:58 281K
20260416T18Z_MSC_RDPS_GeopotentialHeight_IsbL-0950_RLatLon0.09_PT060H.grib2 2026-04-16 20:58 283K
20260416T18Z_MSC_RDPS_GeopotentialHeight_IsbL-0970_RLatLon0.09_PT060H.grib2 2026-04-16 20:58 286K
20260416T18Z_MSC_RDPS_GeopotentialHeight_IsbL-0985_RLatLon0.09_PT060H.grib2 2026-04-16 20:58 292K
20260416T18Z_MSC_RDPS_GeopotentialHeight_IsbL-1000_RLatLon0.09_PT060H.grib2 2026-04-16 20:58 301K
20260416T18Z_MSC_RDPS_GeopotentialHeight_IsbL-1015_RLatLon0.09_PT060H.grib2 2026-04-16 20:58 312K
20260416T18Z_MSC_RDPS_Humidex_Sfc_RLatLon0.09_PT060H.grib2 2026-04-16 20:58 2.4M
20260416T18Z_MSC_RDPS_IcePellets-Accum12h_Sfc_RLatLon0.09_PT060H.grib2 2026-04-16 20:58 24K
20260416T18Z_MSC_RDPS_IcePellets-Accum1h_Sfc_RLatLon0.09_PT060H.grib2 2026-04-16 20:58 9.5K
20260416T18Z_MSC_RDPS_IcePellets-Accum24h_Sfc_RLatLon0.09_PT060H.grib2 2026-04-16 20:58 45K
20260416T18Z_MSC_RDPS_IcePellets-Accum3h_Sfc_RLatLon0.09_PT060H.grib2 2026-04-16 20:58 13K
20260416T18Z_MSC_RDPS_IcePellets-Accum6h_Sfc_RLatLon0.09_PT060H.grib2 2026-04-16 20:58 18K
20260416T18Z_MSC_RDPS_IcePellets-Accum_Sfc_RLatLon0.09_PT060H.grib2 2026-04-16 20:58 63K
20260416T18Z_MSC_RDPS_KIndex_Sfc_RLatLon0.09_PT060H.grib2 2026-04-16 20:58 2.5M
20260416T18Z_MSC_RDPS_LatentHeatNetFlux_Sfc_RLatLon0.09_PT060H.grib2 2026-04-16 20:58 310K
20260416T18Z_MSC_RDPS_LiftedIndex-MU-VT_IsbL-0500_RLatLon0.09_PT060H.grib2 2026-04-16 20:58 2.4M
20260416T18Z_MSC_RDPS_NetLongwaveRadiationFlux-Accum_Sfc_RLatLon0.09_PT060H.grib2 2026-04-16 20:58 577K
20260416T18Z_MSC_RDPS_NetShortwaveRadiationFlux-Accum_Sfc_RLatLon0.09_PT060H.grib2 2026-04-16 20:58 591K
20260416T18Z_MSC_RDPS_PlanetaryBoundaryLayerHeight_Sfc_RLatLon0.09_PT060H.grib2 2026-04-16 20:58 1.1M
20260416T18Z_MSC_RDPS_Precip-Accum12h_Sfc_RLatLon0.09_PT060H.grib2 2026-04-16 20:58 1.7M
20260416T18Z_MSC_RDPS_Precip-Accum1h_Sfc_RLatLon0.09_PT060H.grib2 2026-04-16 20:58 1.3M
20260416T18Z_MSC_RDPS_Precip-Accum24h_Sfc_RLatLon0.09_PT060H.grib2 2026-04-16 20:58 1.9M
20260416T18Z_MSC_RDPS_Precip-Accum3h_Sfc_RLatLon0.09_PT060H.grib2 2026-04-16 20:58 1.4M
20260416T18Z_MSC_RDPS_Precip-Accum6h_Sfc_RLatLon0.09_PT060H.grib2 2026-04-16 20:58 1.6M
20260416T18Z_MSC_RDPS_Precip-Accum_Sfc_RLatLon0.09_PT060H.grib2 2026-04-16 20:58 2.1M
20260416T18Z_MSC_RDPS_PrecipRate_Sfc_RLatLon0.09_PT060H.grib2 2026-04-16 20:58 188K
20260416T18Z_MSC_RDPS_PrecipType-Instant_Sfc_RLatLon0.09_PT060H.grib2 2026-04-16 20:58 584K
20260416T18Z_MSC_RDPS_Pressure-Trend3h_Sfc_RLatLon0.09_PT060H.grib2 2026-04-16 20:58 1.2M
20260416T18Z_MSC_RDPS_Pressure_MSL_RLatLon0.09_PT060H.grib2 2026-04-16 20:58 326K
20260416T18Z_MSC_RDPS_Pressure_PVU-1.5_RLatLon0.09_PT060H.grib2 2026-04-16 20:58 2.3M
20260416T18Z_MSC_RDPS_Pressure_PVU-1_RLatLon0.09_PT060H.grib2 2026-04-16 20:58 2.4M
20260416T18Z_MSC_RDPS_Pressure_PVU-2_RLatLon0.09_PT060H.grib2 2026-04-16 20:58 2.4M
20260416T18Z_MSC_RDPS_Pressure_Sfc_RLatLon0.09_PT060H.grib2 2026-04-16 20:58 499K
20260416T18Z_MSC_RDPS_RadiativeTemp_Sfc_RLatLon0.09_PT060H.grib2 2026-04-16 20:58 303K
20260416T18Z_MSC_RDPS_Rain-Accum12h_Sfc_RLatLon0.09_PT060H.grib2 2026-04-16 20:58 1.1M
20260416T18Z_MSC_RDPS_Rain-Accum1h_Sfc_RLatLon0.09_PT060H.grib2 2026-04-16 20:58 671K
20260416T18Z_MSC_RDPS_Rain-Accum24h_Sfc_RLatLon0.09_PT060H.grib2 2026-04-16 20:58 1.3M
20260416T18Z_MSC_RDPS_Rain-Accum3h_Sfc_RLatLon0.09_PT060H.grib2 2026-04-16 20:58 748K
20260416T18Z_MSC_RDPS_Rain-Accum6h_Sfc_RLatLon0.09_PT060H.grib2 2026-04-16 20:58 1.0M
20260416T18Z_MSC_RDPS_Rain-Accum_Sfc_RLatLon0.09_PT060H.grib2 2026-04-16 20:58 1.6M
20260416T18Z_MSC_RDPS_RelativeHumidity_AGL-2m_RLatLon0.09_PT060H.grib2 2026-04-16 20:58 1.0M
20260416T18Z_MSC_RDPS_RelativeHumidity_IsbL-0010_RLatLon0.09_PT060H.grib2 2026-04-16 20:58 640K
20260416T18Z_MSC_RDPS_RelativeHumidity_IsbL-0020_RLatLon0.09_PT060H.grib2 2026-04-16 20:58 533K
20260416T18Z_MSC_RDPS_RelativeHumidity_IsbL-0030_RLatLon0.09_PT060H.grib2 2026-04-16 20:58 464K
20260416T18Z_MSC_RDPS_RelativeHumidity_IsbL-0050_RLatLon0.09_PT060H.grib2 2026-04-16 20:58 264K
20260416T18Z_MSC_RDPS_RelativeHumidity_IsbL-0100_RLatLon0.09_PT060H.grib2 2026-04-16 20:58 360K
20260416T18Z_MSC_RDPS_RelativeHumidity_IsbL-0150_RLatLon0.09_PT060H.grib2 2026-04-16 20:58 385K
20260416T18Z_MSC_RDPS_RelativeHumidity_IsbL-0175_RLatLon0.09_PT060H.grib2 2026-04-16 20:58 471K
20260416T18Z_MSC_RDPS_RelativeHumidity_IsbL-0200_RLatLon0.09_PT060H.grib2 2026-04-16 20:58 546K
20260416T18Z_MSC_RDPS_RelativeHumidity_IsbL-0225_RLatLon0.09_PT060H.grib2 2026-04-16 20:58 609K
20260416T18Z_MSC_RDPS_RelativeHumidity_IsbL-0250_RLatLon0.09_PT060H.grib2 2026-04-16 20:58 674K
20260416T18Z_MSC_RDPS_RelativeHumidity_IsbL-0275_RLatLon0.09_PT060H.grib2 2026-04-16 20:58 693K
20260416T18Z_MSC_RDPS_RelativeHumidity_IsbL-0300_RLatLon0.09_PT060H.grib2 2026-04-16 20:58 732K
20260416T18Z_MSC_RDPS_RelativeHumidity_IsbL-0350_RLatLon0.09_PT060H.grib2 2026-04-16 20:58 749K
20260416T18Z_MSC_RDPS_RelativeHumidity_IsbL-0400_RLatLon0.09_PT060H.grib2 2026-04-16 20:58 769K
20260416T18Z_MSC_RDPS_RelativeHumidity_IsbL-0450_RLatLon0.09_PT060H.grib2 2026-04-16 20:58 780K
20260416T18Z_MSC_RDPS_RelativeHumidity_IsbL-0500_RLatLon0.09_PT060H.grib2 2026-04-16 20:58 784K
20260416T18Z_MSC_RDPS_RelativeHumidity_IsbL-0550_RLatLon0.09_PT060H.grib2 2026-04-16 20:58 813K
20260416T18Z_MSC_RDPS_RelativeHumidity_IsbL-0600_RLatLon0.09_PT060H.grib2 2026-04-16 20:58 834K
20260416T18Z_MSC_RDPS_RelativeHumidity_IsbL-0650_RLatLon0.09_PT060H.grib2 2026-04-16 20:58 845K
20260416T18Z_MSC_RDPS_RelativeHumidity_IsbL-0700_RLatLon0.09_PT060H.grib2 2026-04-16 20:58 871K
20260416T18Z_MSC_RDPS_RelativeHumidity_IsbL-0750_RLatLon0.09_PT060H.grib2 2026-04-16 20:58 912K
20260416T18Z_MSC_RDPS_RelativeHumidity_IsbL-0800_RLatLon0.09_PT060H.grib2 2026-04-16 20:58 1.0M
20260416T18Z_MSC_RDPS_RelativeHumidity_IsbL-0850_RLatLon0.09_PT060H.grib2 2026-04-16 20:58 1.0M
20260416T18Z_MSC_RDPS_RelativeHumidity_IsbL-0875_RLatLon0.09_PT060H.grib2 2026-04-16 20:58 1.0M
20260416T18Z_MSC_RDPS_RelativeHumidity_IsbL-0900_RLatLon0.09_PT060H.grib2 2026-04-16 20:58 1.1M
20260416T18Z_MSC_RDPS_RelativeHumidity_IsbL-0925_RLatLon0.09_PT060H.grib2 2026-04-16 20:58 1.1M
20260416T18Z_MSC_RDPS_RelativeHumidity_IsbL-0950_RLatLon0.09_PT060H.grib2 2026-04-16 20:58 1.1M
20260416T18Z_MSC_RDPS_RelativeHumidity_IsbL-0970_RLatLon0.09_PT060H.grib2 2026-04-16 20:58 1.0M
20260416T18Z_MSC_RDPS_RelativeHumidity_IsbL-0985_RLatLon0.09_PT060H.grib2 2026-04-16 20:58 1.0M
20260416T18Z_MSC_RDPS_RelativeHumidity_IsbL-1000_RLatLon0.09_PT060H.grib2 2026-04-16 20:58 1.0M
20260416T18Z_MSC_RDPS_RelativeHumidity_IsbL-1015_RLatLon0.09_PT060H.grib2 2026-04-16 20:58 1.0M
20260416T18Z_MSC_RDPS_Runoff-Accum_Sfc_RLatLon0.09_PT060H.grib2 2026-04-16 20:58 60K
20260416T18Z_MSC_RDPS_SWEATIndex_Sfc_RLatLon0.09_PT060H.grib2 2026-04-16 20:58 2.5M
20260416T18Z_MSC_RDPS_SeeingIndex_EAtm_RLatLon0.09_PT060H.grib2 2026-04-16 20:58 1.0M
20260416T18Z_MSC_RDPS_SensibleHeatNetFlux_Sfc_RLatLon0.09_PT060H.grib2 2026-04-16 20:58 295K
20260416T18Z_MSC_RDPS_ShowalterIndex_IsbL-0500_RLatLon0.09_PT060H.grib2 2026-04-16 20:58 2.6M
20260416T18Z_MSC_RDPS_SkyTransparencyIndex_EAtm_RLatLon0.09_PT060H.grib2 2026-04-16 20:58 721K
20260416T18Z_MSC_RDPS_Snow-Accum12h_Sfc_RLatLon0.09_PT060H.grib2 2026-04-16 20:58 597K
20260416T18Z_MSC_RDPS_Snow-Accum1h_Sfc_RLatLon0.09_PT060H.grib2 2026-04-16 20:58 473K
20260416T18Z_MSC_RDPS_Snow-Accum24h_Sfc_RLatLon0.09_PT060H.grib2 2026-04-16 20:58 680K
20260416T18Z_MSC_RDPS_Snow-Accum3h_Sfc_RLatLon0.09_PT060H.grib2 2026-04-16 20:58 425K
20260416T18Z_MSC_RDPS_Snow-Accum6h_Sfc_RLatLon0.09_PT060H.grib2 2026-04-16 20:58 552K
20260416T18Z_MSC_RDPS_Snow-Accum_Sfc_RLatLon0.09_PT060H.grib2 2026-04-16 20:58 834K
20260416T18Z_MSC_RDPS_SnowDensity_Sfc_RLatLon0.09_PT060H.grib2 2026-04-16 20:58 182K
20260416T18Z_MSC_RDPS_SnowDepth_Sfc_RLatLon0.09_PT060H.grib2 2026-04-16 20:58 731K
20260416T18Z_MSC_RDPS_SoilTemp_DBS-0to10cm_RLatLon0.09_PT060H.grib2 2026-04-16 20:58 235K
20260416T18Z_MSC_RDPS_SoilTemp_Sfc_RLatLon0.09_PT060H.grib2 2026-04-16 20:58 278K
20260416T18Z_MSC_RDPS_SoilVolumetricIceContent_Sfc_RLatLon0.09_PT060H.grib2 2026-04-16 20:58 176K
20260416T18Z_MSC_RDPS_SoilVolumetricWaterContent_DBS-0to10cm_RLatLon0.09_PT060H.grib2 2026-04-16 20:58 247K
20260416T18Z_MSC_RDPS_SoilVolumetricWaterContent_DBS-0to1cm_RLatLon0.09_PT060H.grib2 2026-04-16 20:58 336K
20260416T18Z_MSC_RDPS_SpecificHumidity_AGL-120m_RLatLon0.09_PT060H.grib2 2026-04-16 20:58 470K
20260416T18Z_MSC_RDPS_SpecificHumidity_AGL-2m_RLatLon0.09_PT060H.grib2 2026-04-16 20:58 629K
20260416T18Z_MSC_RDPS_SpecificHumidity_AGL-40m_RLatLon0.09_PT060H.grib2 2026-04-16 20:58 474K
20260416T18Z_MSC_RDPS_SpecificHumidity_AGL-80m_RLatLon0.09_PT060H.grib2 2026-04-16 20:58 471K
20260416T18Z_MSC_RDPS_SpecificHumidity_IsbL-0001_RLatLon0.09_PT060H.grib2 2026-04-16 20:58 303K
20260416T18Z_MSC_RDPS_SpecificHumidity_IsbL-0005_RLatLon0.09_PT060H.grib2 2026-04-16 20:58 340K
20260416T18Z_MSC_RDPS_SpecificHumidity_IsbL-0010_RLatLon0.09_PT060H.grib2 2026-04-16 20:58 374K
20260416T18Z_MSC_RDPS_SpecificHumidity_IsbL-0020_RLatLon0.09_PT060H.grib2 2026-04-16 20:58 369K
20260416T18Z_MSC_RDPS_SpecificHumidity_IsbL-0030_RLatLon0.09_PT060H.grib2 2026-04-16 20:58 425K
20260416T18Z_MSC_RDPS_SpecificHumidity_IsbL-0050_RLatLon0.09_PT060H.grib2 2026-04-16 20:58 459K
20260416T18Z_MSC_RDPS_SpecificHumidity_IsbL-0100_RLatLon0.09_PT060H.grib2 2026-04-16 20:58 386K
20260416T18Z_MSC_RDPS_SpecificHumidity_IsbL-0150_RLatLon0.09_PT060H.grib2 2026-04-16 20:58 435K
20260416T18Z_MSC_RDPS_SpecificHumidity_IsbL-0175_RLatLon0.09_PT060H.grib2 2026-04-16 20:58 528K
20260416T18Z_MSC_RDPS_SpecificHumidity_IsbL-0200_RLatLon0.09_PT060H.grib2 2026-04-16 20:58 436K
20260416T18Z_MSC_RDPS_SpecificHumidity_IsbL-0225_RLatLon0.09_PT060H.grib2 2026-04-16 20:58 546K
20260416T18Z_MSC_RDPS_SpecificHumidity_IsbL-0250_RLatLon0.09_PT060H.grib2 2026-04-16 20:58 542K
20260416T18Z_MSC_RDPS_SpecificHumidity_IsbL-0275_RLatLon0.09_PT060H.grib2 2026-04-16 20:58 455K
20260416T18Z_MSC_RDPS_SpecificHumidity_IsbL-0300_RLatLon0.09_PT060H.grib2 2026-04-16 20:58 522K
20260416T18Z_MSC_RDPS_SpecificHumidity_IsbL-0350_RLatLon0.09_PT060H.grib2 2026-04-16 20:58 510K
20260416T18Z_MSC_RDPS_SpecificHumidity_IsbL-0400_RLatLon0.09_PT060H.grib2 2026-04-16 20:58 498K
20260416T18Z_MSC_RDPS_SpecificHumidity_IsbL-0450_RLatLon0.09_PT060H.grib2 2026-04-16 20:58 571K
20260416T18Z_MSC_RDPS_SpecificHumidity_IsbL-0500_RLatLon0.09_PT060H.grib2 2026-04-16 20:58 493K
20260416T18Z_MSC_RDPS_SpecificHumidity_IsbL-0550_RLatLon0.09_PT060H.grib2 2026-04-16 20:58 547K
20260416T18Z_MSC_RDPS_SpecificHumidity_IsbL-0600_RLatLon0.09_PT060H.grib2 2026-04-16 20:58 617K
20260416T18Z_MSC_RDPS_SpecificHumidity_IsbL-0650_RLatLon0.09_PT060H.grib2 2026-04-16 20:58 533K
20260416T18Z_MSC_RDPS_SpecificHumidity_IsbL-0700_RLatLon0.09_PT060H.grib2 2026-04-16 20:58 574K
20260416T18Z_MSC_RDPS_SpecificHumidity_IsbL-0750_RLatLon0.09_PT060H.grib2 2026-04-16 20:58 626K
20260416T18Z_MSC_RDPS_SpecificHumidity_IsbL-0800_RLatLon0.09_PT060H.grib2 2026-04-16 20:58 696K
20260416T18Z_MSC_RDPS_SpecificHumidity_IsbL-0850_RLatLon0.09_PT060H.grib2 2026-04-16 20:58 773K
20260416T18Z_MSC_RDPS_SpecificHumidity_IsbL-0875_RLatLon0.09_PT060H.grib2 2026-04-16 20:58 796K
20260416T18Z_MSC_RDPS_SpecificHumidity_IsbL-0900_RLatLon0.09_PT060H.grib2 2026-04-16 20:58 809K
20260416T18Z_MSC_RDPS_SpecificHumidity_IsbL-0925_RLatLon0.09_PT060H.grib2 2026-04-16 20:58 813K
20260416T18Z_MSC_RDPS_SpecificHumidity_IsbL-0950_RLatLon0.09_PT060H.grib2 2026-04-16 20:58 812K
20260416T18Z_MSC_RDPS_SpecificHumidity_IsbL-0970_RLatLon0.09_PT060H.grib2 2026-04-16 20:58 802K
20260416T18Z_MSC_RDPS_SpecificHumidity_IsbL-0985_RLatLon0.09_PT060H.grib2 2026-04-16 20:58 796K
20260416T18Z_MSC_RDPS_SpecificHumidity_IsbL-1000_RLatLon0.09_PT060H.grib2 2026-04-16 20:58 788K
20260416T18Z_MSC_RDPS_SpecificHumidity_IsbL-1015_RLatLon0.09_PT060H.grib2 2026-04-16 20:58 642K
20260416T18Z_MSC_RDPS_SpecificHumidity_Sfc_RLatLon0.09_PT060H.grib2 2026-04-16 20:58 283K
20260416T18Z_MSC_RDPS_StormRelativeHelicity_EtaL-10000_RLatLon0.09_PT060H.grib2 2026-04-16 20:58 1.1M
20260416T18Z_MSC_RDPS_StormSeverityIndex_EtaL-10000_RLatLon0.09_PT060H.grib2 2026-04-16 20:58 1.2M
20260416T18Z_MSC_RDPS_Thickness_IsbL-0850to0700_RLatLon0.09_PT060H.grib2 2026-04-16 20:58 177K
20260416T18Z_MSC_RDPS_Thickness_IsbL-1000to0500_RLatLon0.09_PT060H.grib2 2026-04-16 20:58 199K
20260416T18Z_MSC_RDPS_Thickness_IsbL-1000to0850_RLatLon0.09_PT060H.grib2 2026-04-16 20:58 184K
20260416T18Z_MSC_RDPS_TotalCloudCover_Sfc_RLatLon0.09_PT060H.grib2 2026-04-16 20:58 667K
20260416T18Z_MSC_RDPS_TotalTotalsIndex_Sfc_RLatLon0.09_PT060H.grib2 2026-04-16 20:58 2.4M
20260416T18Z_MSC_RDPS_UVIndex-ClearSky_Sfc_RLatLon0.09_PT060H.grib2 2026-04-16 20:58 106K
20260416T18Z_MSC_RDPS_UVIndex_Sfc_RLatLon0.09_PT060H.grib2 2026-04-16 20:58 165K
20260416T18Z_MSC_RDPS_UpwardLongwaveRadiationFlux_NTAtm_RLatLon0.09_PT060H.grib2 2026-04-16 20:58 481K
20260416T18Z_MSC_RDPS_UpwardShortwaveRadiationFlux_NTAtm_RLatLon0.09_PT060H.grib2 2026-04-16 20:58 149K
20260416T18Z_MSC_RDPS_VerticalVelocity_IsbL-0250_RLatLon0.09_PT060H.grib2 2026-04-16 20:58 550K
20260416T18Z_MSC_RDPS_VerticalVelocity_IsbL-0500_RLatLon0.09_PT060H.grib2 2026-04-16 20:58 540K
20260416T18Z_MSC_RDPS_VerticalVelocity_IsbL-0700_RLatLon0.09_PT060H.grib2 2026-04-16 20:58 587K
20260416T18Z_MSC_RDPS_VerticalVelocity_IsbL-0850_RLatLon0.09_PT060H.grib2 2026-04-16 20:58 689K
20260416T18Z_MSC_RDPS_VerticalWindShear_EtaL-6500_RLatLon0.09_PT060H.grib2 2026-04-16 20:58 1.2M
20260416T18Z_MSC_RDPS_WindChill_Sfc_RLatLon0.09_PT060H.grib2 2026-04-16 20:58 1.2M
20260416T18Z_MSC_RDPS_WindDir_AGL-10m_RLatLon0.09_PT060H.grib2 2026-04-16 20:58 956K
20260416T18Z_MSC_RDPS_WindDir_AGL-120m_RLatLon0.09_PT060H.grib2 2026-04-16 20:58 586K
20260416T18Z_MSC_RDPS_WindDir_AGL-40m_RLatLon0.09_PT060H.grib2 2026-04-16 20:58 621K
20260416T18Z_MSC_RDPS_WindDir_AGL-80m_RLatLon0.09_PT060H.grib2 2026-04-16 20:58 600K
20260416T18Z_MSC_RDPS_WindDir_IsbL-0001_RLatLon0.09_PT060H.grib2 2026-04-16 20:58 273K
20260416T18Z_MSC_RDPS_WindDir_IsbL-0005_RLatLon0.09_PT060H.grib2 2026-04-16 20:58 377K
20260416T18Z_MSC_RDPS_WindDir_IsbL-0010_RLatLon0.09_PT060H.grib2 2026-04-16 20:58 364K
20260416T18Z_MSC_RDPS_WindDir_IsbL-0020_RLatLon0.09_PT060H.grib2 2026-04-16 20:58 384K
20260416T18Z_MSC_RDPS_WindDir_IsbL-0030_RLatLon0.09_PT060H.grib2 2026-04-16 20:58 388K
20260416T18Z_MSC_RDPS_WindDir_IsbL-0050_RLatLon0.09_PT060H.grib2 2026-04-16 20:58 413K
20260416T18Z_MSC_RDPS_WindDir_IsbL-0100_RLatLon0.09_PT060H.grib2 2026-04-16 20:58 392K
20260416T18Z_MSC_RDPS_WindDir_IsbL-0150_RLatLon0.09_PT060H.grib2 2026-04-16 20:58 391K
20260416T18Z_MSC_RDPS_WindDir_IsbL-0175_RLatLon0.09_PT060H.grib2 2026-04-16 20:58 417K
20260416T18Z_MSC_RDPS_WindDir_IsbL-0200_RLatLon0.09_PT060H.grib2 2026-04-16 20:58 430K
20260416T18Z_MSC_RDPS_WindDir_IsbL-0225_RLatLon0.09_PT060H.grib2 2026-04-16 20:58 434K
20260416T18Z_MSC_RDPS_WindDir_IsbL-0250_RLatLon0.09_PT060H.grib2 2026-04-16 20:58 431K
20260416T18Z_MSC_RDPS_WindDir_IsbL-0275_RLatLon0.09_PT060H.grib2 2026-04-16 20:58 448K
20260416T18Z_MSC_RDPS_WindDir_IsbL-0300_RLatLon0.09_PT060H.grib2 2026-04-16 20:58 442K
20260416T18Z_MSC_RDPS_WindDir_IsbL-0350_RLatLon0.09_PT060H.grib2 2026-04-16 20:58 462K
20260416T18Z_MSC_RDPS_WindDir_IsbL-0400_RLatLon0.09_PT060H.grib2 2026-04-16 20:58 483K
20260416T18Z_MSC_RDPS_WindDir_IsbL-0450_RLatLon0.09_PT060H.grib2 2026-04-16 20:58 504K
20260416T18Z_MSC_RDPS_WindDir_IsbL-0500_RLatLon0.09_PT060H.grib2 2026-04-16 20:58 530K
20260416T18Z_MSC_RDPS_WindDir_IsbL-0550_RLatLon0.09_PT060H.grib2 2026-04-16 20:58 552K
20260416T18Z_MSC_RDPS_WindDir_IsbL-0600_RLatLon0.09_PT060H.grib2 2026-04-16 20:58 582K
20260416T18Z_MSC_RDPS_WindDir_IsbL-0650_RLatLon0.09_PT060H.grib2 2026-04-16 20:58 620K
20260416T18Z_MSC_RDPS_WindDir_IsbL-0700_RLatLon0.09_PT060H.grib2 2026-04-16 20:58 660K
20260416T18Z_MSC_RDPS_WindDir_IsbL-0750_RLatLon0.09_PT060H.grib2 2026-04-16 20:58 701K
20260416T18Z_MSC_RDPS_WindDir_IsbL-0800_RLatLon0.09_PT060H.grib2 2026-04-16 20:58 757K
20260416T18Z_MSC_RDPS_WindDir_IsbL-0850_RLatLon0.09_PT060H.grib2 2026-04-16 20:58 837K
20260416T18Z_MSC_RDPS_WindDir_IsbL-0875_RLatLon0.09_PT060H.grib2 2026-04-16 20:58 867K
20260416T18Z_MSC_RDPS_WindDir_IsbL-0900_RLatLon0.09_PT060H.grib2 2026-04-16 20:58 884K
20260416T18Z_MSC_RDPS_WindDir_IsbL-0925_RLatLon0.09_PT060H.grib2 2026-04-16 20:58 895K
20260416T18Z_MSC_RDPS_WindDir_IsbL-0950_RLatLon0.09_PT060H.grib2 2026-04-16 20:58 890K
20260416T18Z_MSC_RDPS_WindDir_IsbL-0970_RLatLon0.09_PT060H.grib2 2026-04-16 20:58 897K
20260416T18Z_MSC_RDPS_WindDir_IsbL-0985_RLatLon0.09_PT060H.grib2 2026-04-16 20:58 908K
20260416T18Z_MSC_RDPS_WindDir_IsbL-1000_RLatLon0.09_PT060H.grib2 2026-04-16 20:58 926K
20260416T18Z_MSC_RDPS_WindDir_IsbL-1015_RLatLon0.09_PT060H.grib2 2026-04-16 20:58 948K
20260416T18Z_MSC_RDPS_WindGust-Max_AGL-10m_RLatLon0.09_PT060H.grib2 2026-04-16 20:58 1.0M
20260416T18Z_MSC_RDPS_WindGust-Min_AGL-10m_RLatLon0.09_PT060H.grib2 2026-04-16 20:58 1.0M
20260416T18Z_MSC_RDPS_WindGust_AGL-10m_RLatLon0.09_PT060H.grib2 2026-04-16 20:58 1.0M
20260416T18Z_MSC_RDPS_WindSpeed_AGL-10m_RLatLon0.09_PT060H.grib2 2026-04-16 20:58 847K
20260416T18Z_MSC_RDPS_WindSpeed_AGL-120m_RLatLon0.09_PT060H.grib2 2026-04-16 20:58 553K
20260416T18Z_MSC_RDPS_WindSpeed_AGL-40m_RLatLon0.09_PT060H.grib2 2026-04-16 20:58 547K
20260416T18Z_MSC_RDPS_WindSpeed_AGL-80m_RLatLon0.09_PT060H.grib2 2026-04-16 20:58 544K
20260416T18Z_MSC_RDPS_WindSpeed_IsbL-0001_RLatLon0.09_PT060H.grib2 2026-04-16 20:58 248K
20260416T18Z_MSC_RDPS_WindSpeed_IsbL-0005_RLatLon0.09_PT060H.grib2 2026-04-16 20:58 341K
20260416T18Z_MSC_RDPS_WindSpeed_IsbL-0010_RLatLon0.09_PT060H.grib2 2026-04-16 20:58 308K
20260416T18Z_MSC_RDPS_WindSpeed_IsbL-0020_RLatLon0.09_PT060H.grib2 2026-04-16 20:58 326K
20260416T18Z_MSC_RDPS_WindSpeed_IsbL-0030_RLatLon0.09_PT060H.grib2 2026-04-16 20:58 326K
20260416T18Z_MSC_RDPS_WindSpeed_IsbL-0050_RLatLon0.09_PT060H.grib2 2026-04-16 20:58 364K
20260416T18Z_MSC_RDPS_WindSpeed_IsbL-0100_RLatLon0.09_PT060H.grib2 2026-04-16 20:58 476K
20260416T18Z_MSC_RDPS_WindSpeed_IsbL-0150_RLatLon0.09_PT060H.grib2 2026-04-16 20:58 370K
20260416T18Z_MSC_RDPS_WindSpeed_IsbL-0175_RLatLon0.09_PT060H.grib2 2026-04-16 20:58 395K
20260416T18Z_MSC_RDPS_WindSpeed_IsbL-0200_RLatLon0.09_PT060H.grib2 2026-04-16 20:58 436K
20260416T18Z_MSC_RDPS_WindSpeed_IsbL-0225_RLatLon0.09_PT060H.grib2 2026-04-16 20:58 443K
20260416T18Z_MSC_RDPS_WindSpeed_IsbL-0250_RLatLon0.09_PT060H.grib2 2026-04-16 20:58 445K
20260416T18Z_MSC_RDPS_WindSpeed_IsbL-0275_RLatLon0.09_PT060H.grib2 2026-04-16 20:58 459K
20260416T18Z_MSC_RDPS_WindSpeed_IsbL-0300_RLatLon0.09_PT060H.grib2 2026-04-16 20:58 453K
20260416T18Z_MSC_RDPS_WindSpeed_IsbL-0350_RLatLon0.09_PT060H.grib2 2026-04-16 20:58 463K
20260416T18Z_MSC_RDPS_WindSpeed_IsbL-0400_RLatLon0.09_PT060H.grib2 2026-04-16 20:58 468K
20260416T18Z_MSC_RDPS_WindSpeed_IsbL-0450_RLatLon0.09_PT060H.grib2 2026-04-16 20:58 470K
20260416T18Z_MSC_RDPS_WindSpeed_IsbL-0500_RLatLon0.09_PT060H.grib2 2026-04-16 20:58 455K
20260416T18Z_MSC_RDPS_WindSpeed_IsbL-0550_RLatLon0.09_PT060H.grib2 2026-04-16 20:58 457K
20260416T18Z_MSC_RDPS_WindSpeed_IsbL-0600_RLatLon0.09_PT060H.grib2 2026-04-16 20:58 581K
20260416T18Z_MSC_RDPS_WindSpeed_IsbL-0650_RLatLon0.09_PT060H.grib2 2026-04-16 20:58 600K
20260416T18Z_MSC_RDPS_WindSpeed_IsbL-0700_RLatLon0.09_PT060H.grib2 2026-04-16 20:58 625K
20260416T18Z_MSC_RDPS_WindSpeed_IsbL-0750_RLatLon0.09_PT060H.grib2 2026-04-16 20:58 700K
20260416T18Z_MSC_RDPS_WindSpeed_IsbL-0800_RLatLon0.09_PT060H.grib2 2026-04-16 20:58 752K
20260416T18Z_MSC_RDPS_WindSpeed_IsbL-0850_RLatLon0.09_PT060H.grib2 2026-04-16 20:58 811K
20260416T18Z_MSC_RDPS_WindSpeed_IsbL-0875_RLatLon0.09_PT060H.grib2 2026-04-16 20:58 833K
20260416T18Z_MSC_RDPS_WindSpeed_IsbL-0900_RLatLon0.09_PT060H.grib2 2026-04-16 20:58 850K
20260416T18Z_MSC_RDPS_WindSpeed_IsbL-0925_RLatLon0.09_PT060H.grib2 2026-04-16 20:58 864K
20260416T18Z_MSC_RDPS_WindSpeed_IsbL-0950_RLatLon0.09_PT060H.grib2 2026-04-16 20:58 863K
20260416T18Z_MSC_RDPS_WindSpeed_IsbL-0970_RLatLon0.09_PT060H.grib2 2026-04-16 20:58 863K
20260416T18Z_MSC_RDPS_WindSpeed_IsbL-0985_RLatLon0.09_PT060H.grib2 2026-04-16 20:58 857K
20260416T18Z_MSC_RDPS_WindSpeed_IsbL-1000_RLatLon0.09_PT060H.grib2 2026-04-16 20:58 853K
20260416T18Z_MSC_RDPS_WindSpeed_IsbL-1015_RLatLon0.09_PT060H.grib2 2026-04-16 20:58 846K
20260416T18Z_MSC_RDPS_WindU_AGL-10m_RLatLon0.09_PT060H.grib2 2026-04-16 20:58 385K
20260416T18Z_MSC_RDPS_WindU_AGL-120m_RLatLon0.09_PT060H.grib2 2026-04-16 20:58 420K
20260416T18Z_MSC_RDPS_WindU_AGL-40m_RLatLon0.09_PT060H.grib2 2026-04-16 20:58 424K
20260416T18Z_MSC_RDPS_WindU_AGL-80m_RLatLon0.09_PT060H.grib2 2026-04-16 20:58 422K
20260416T18Z_MSC_RDPS_WindU_IsbL-0001_RLatLon0.09_PT060H.grib2 2026-04-16 20:58 289K
20260416T18Z_MSC_RDPS_WindU_IsbL-0005_RLatLon0.09_PT060H.grib2 2026-04-16 20:58 333K
20260416T18Z_MSC_RDPS_WindU_IsbL-0010_RLatLon0.09_PT060H.grib2 2026-04-16 20:58 313K
20260416T18Z_MSC_RDPS_WindU_IsbL-0020_RLatLon0.09_PT060H.grib2 2026-04-16 20:58 328K
20260416T18Z_MSC_RDPS_WindU_IsbL-0030_RLatLon0.09_PT060H.grib2 2026-04-16 20:58 328K
20260416T18Z_MSC_RDPS_WindU_IsbL-0050_RLatLon0.09_PT060H.grib2 2026-04-16 20:58 391K
20260416T18Z_MSC_RDPS_WindU_IsbL-0100_RLatLon0.09_PT060H.grib2 2026-04-16 20:58 428K
20260416T18Z_MSC_RDPS_WindU_IsbL-0150_RLatLon0.09_PT060H.grib2 2026-04-16 20:58 387K
20260416T18Z_MSC_RDPS_WindU_IsbL-0175_RLatLon0.09_PT060H.grib2 2026-04-16 20:58 411K
20260416T18Z_MSC_RDPS_WindU_IsbL-0200_RLatLon0.09_PT060H.grib2 2026-04-16 20:58 429K
20260416T18Z_MSC_RDPS_WindU_IsbL-0225_RLatLon0.09_PT060H.grib2 2026-04-16 20:58 337K
20260416T18Z_MSC_RDPS_WindU_IsbL-0250_RLatLon0.09_PT060H.grib2 2026-04-16 20:58 337K
20260416T18Z_MSC_RDPS_WindU_IsbL-0275_RLatLon0.09_PT060H.grib2 2026-04-16 20:58 348K
20260416T18Z_MSC_RDPS_WindU_IsbL-0300_RLatLon0.09_PT060H.grib2 2026-04-16 20:58 342K
20260416T18Z_MSC_RDPS_WindU_IsbL-0350_RLatLon0.09_PT060H.grib2 2026-04-16 20:58 349K
20260416T18Z_MSC_RDPS_WindU_IsbL-0400_RLatLon0.09_PT060H.grib2 2026-04-16 20:58 353K
20260416T18Z_MSC_RDPS_WindU_IsbL-0450_RLatLon0.09_PT060H.grib2 2026-04-16 20:58 357K
20260416T18Z_MSC_RDPS_WindU_IsbL-0500_RLatLon0.09_PT060H.grib2 2026-04-16 20:58 360K
20260416T18Z_MSC_RDPS_WindU_IsbL-0550_RLatLon0.09_PT060H.grib2 2026-04-16 20:58 362K
20260416T18Z_MSC_RDPS_WindU_IsbL-0600_RLatLon0.09_PT060H.grib2 2026-04-16 20:58 472K
20260416T18Z_MSC_RDPS_WindU_IsbL-0650_RLatLon0.09_PT060H.grib2 2026-04-16 20:58 489K
20260416T18Z_MSC_RDPS_WindU_IsbL-0700_RLatLon0.09_PT060H.grib2 2026-04-16 20:58 511K
20260416T18Z_MSC_RDPS_WindU_IsbL-0750_RLatLon0.09_PT060H.grib2 2026-04-16 20:58 537K
20260416T18Z_MSC_RDPS_WindU_IsbL-0800_RLatLon0.09_PT060H.grib2 2026-04-16 20:58 579K
20260416T18Z_MSC_RDPS_WindU_IsbL-0850_RLatLon0.09_PT060H.grib2 2026-04-16 20:58 629K
20260416T18Z_MSC_RDPS_WindU_IsbL-0875_RLatLon0.09_PT060H.grib2 2026-04-16 20:58 647K
20260416T18Z_MSC_RDPS_WindU_IsbL-0900_RLatLon0.09_PT060H.grib2 2026-04-16 20:58 658K
20260416T18Z_MSC_RDPS_WindU_IsbL-0925_RLatLon0.09_PT060H.grib2 2026-04-16 20:58 667K
20260416T18Z_MSC_RDPS_WindU_IsbL-0950_RLatLon0.09_PT060H.grib2 2026-04-16 20:58 662K
20260416T18Z_MSC_RDPS_WindU_IsbL-0970_RLatLon0.09_PT060H.grib2 2026-04-16 20:58 654K
20260416T18Z_MSC_RDPS_WindU_IsbL-0985_RLatLon0.09_PT060H.grib2 2026-04-16 20:58 652K
20260416T18Z_MSC_RDPS_WindU_IsbL-1000_RLatLon0.09_PT060H.grib2 2026-04-16 20:58 651K
20260416T18Z_MSC_RDPS_WindU_IsbL-1015_RLatLon0.09_PT060H.grib2 2026-04-16 20:58 646K
20260416T18Z_MSC_RDPS_WindV_AGL-10m_RLatLon0.09_PT060H.grib2 2026-04-16 20:58 431K
20260416T18Z_MSC_RDPS_WindV_AGL-120m_RLatLon0.09_PT060H.grib2 2026-04-16 20:58 418K
20260416T18Z_MSC_RDPS_WindV_AGL-40m_RLatLon0.09_PT060H.grib2 2026-04-16 20:58 537K
20260416T18Z_MSC_RDPS_WindV_AGL-80m_RLatLon0.09_PT060H.grib2 2026-04-16 20:58 535K
20260416T18Z_MSC_RDPS_WindV_IsbL-0001_RLatLon0.09_PT060H.grib2 2026-04-16 20:58 265K
20260416T18Z_MSC_RDPS_WindV_IsbL-0005_RLatLon0.09_PT060H.grib2 2026-04-16 20:58 334K
20260416T18Z_MSC_RDPS_WindV_IsbL-0010_RLatLon0.09_PT060H.grib2 2026-04-16 20:58 343K
20260416T18Z_MSC_RDPS_WindV_IsbL-0020_RLatLon0.09_PT060H.grib2 2026-04-16 20:58 359K
20260416T18Z_MSC_RDPS_WindV_IsbL-0030_RLatLon0.09_PT060H.grib2 2026-04-16 20:58 320K
20260416T18Z_MSC_RDPS_WindV_IsbL-0050_RLatLon0.09_PT060H.grib2 2026-04-16 20:58 357K
20260416T18Z_MSC_RDPS_WindV_IsbL-0100_RLatLon0.09_PT060H.grib2 2026-04-16 20:58 329K
20260416T18Z_MSC_RDPS_WindV_IsbL-0150_RLatLon0.09_PT060H.grib2 2026-04-16 20:58 385K
20260416T18Z_MSC_RDPS_WindV_IsbL-0175_RLatLon0.09_PT060H.grib2 2026-04-16 20:58 410K
20260416T18Z_MSC_RDPS_WindV_IsbL-0200_RLatLon0.09_PT060H.grib2 2026-04-16 20:58 429K
20260416T18Z_MSC_RDPS_WindV_IsbL-0225_RLatLon0.09_PT060H.grib2 2026-04-16 20:58 337K
20260416T18Z_MSC_RDPS_WindV_IsbL-0250_RLatLon0.09_PT060H.grib2 2026-04-16 20:58 338K
20260416T18Z_MSC_RDPS_WindV_IsbL-0275_RLatLon0.09_PT060H.grib2 2026-04-16 20:58 349K
20260416T18Z_MSC_RDPS_WindV_IsbL-0300_RLatLon0.09_PT060H.grib2 2026-04-16 20:58 344K
20260416T18Z_MSC_RDPS_WindV_IsbL-0350_RLatLon0.09_PT060H.grib2 2026-04-16 20:58 351K
20260416T18Z_MSC_RDPS_WindV_IsbL-0400_RLatLon0.09_PT060H.grib2 2026-04-16 20:58 354K
20260416T18Z_MSC_RDPS_WindV_IsbL-0450_RLatLon0.09_PT060H.grib2 2026-04-16 20:58 356K
20260416T18Z_MSC_RDPS_WindV_IsbL-0500_RLatLon0.09_PT060H.grib2 2026-04-16 20:58 460K
20260416T18Z_MSC_RDPS_WindV_IsbL-0550_RLatLon0.09_PT060H.grib2 2026-04-16 20:58 461K
20260416T18Z_MSC_RDPS_WindV_IsbL-0600_RLatLon0.09_PT060H.grib2 2026-04-16 20:58 469K
20260416T18Z_MSC_RDPS_WindV_IsbL-0650_RLatLon0.09_PT060H.grib2 2026-04-16 20:58 485K
20260416T18Z_MSC_RDPS_WindV_IsbL-0700_RLatLon0.09_PT060H.grib2 2026-04-16 20:58 507K
20260416T18Z_MSC_RDPS_WindV_IsbL-0750_RLatLon0.09_PT060H.grib2 2026-04-16 20:58 518K
20260416T18Z_MSC_RDPS_WindV_IsbL-0800_RLatLon0.09_PT060H.grib2 2026-04-16 20:58 574K
20260416T18Z_MSC_RDPS_WindV_IsbL-0850_RLatLon0.09_PT060H.grib2 2026-04-16 20:58 615K
20260416T18Z_MSC_RDPS_WindV_IsbL-0875_RLatLon0.09_PT060H.grib2 2026-04-16 20:58 634K
20260416T18Z_MSC_RDPS_WindV_IsbL-0900_RLatLon0.09_PT060H.grib2 2026-04-16 20:58 647K
20260416T18Z_MSC_RDPS_WindV_IsbL-0925_RLatLon0.09_PT060H.grib2 2026-04-16 20:58 656K
20260416T18Z_MSC_RDPS_WindV_IsbL-0950_RLatLon0.09_PT060H.grib2 2026-04-16 20:58 654K
20260416T18Z_MSC_RDPS_WindV_IsbL-0970_RLatLon0.09_PT060H.grib2 2026-04-16 20:58 651K
20260416T18Z_MSC_RDPS_WindV_IsbL-0985_RLatLon0.09_PT060H.grib2 2026-04-16 20:58 787K
20260416T18Z_MSC_RDPS_WindV_IsbL-1000_RLatLon0.09_PT060H.grib2 2026-04-16 20:58 782K
20260416T18Z_MSC_RDPS_WindV_IsbL-1015_RLatLon0.09_PT060H.grib2 2026-04-16 20:58 777K